Regional Weather Roundup
Issued by NWS Sterling, VA

Current Version | Previous Version | Text Only | Print | Product List | Glossary On
Versions: 1 2 3 4 5 6 7 8 9 10 11 12 13 14 15 16 17 18 19 20 21 22 23 24 25 26 27
000
ASUS41 KLWX 290512
RWRLWX

REGIONAL WEATHER ROUNDUP
NATIONAL WEATHER SERVICE BALTIMORE MD/WASHINGTON DC
100 AM EDT THU JUL 29 2021

Note: "FAIR" indicates few or no clouds below 12,000 feet
with no significant weather and/or obstructions to visibility.
 TC=TEMPERATURE CELSIUS

 * =Non NWS site. Station does not report precipitation (e.g. rain,
    snow, etc.), thunder, or fog.

DCZ001-MDZ009-015-VAZ040>042-051-053>054-290600-
WASHINGTON METRO

CITY           SKY/WX    TMP DP  RH WIND       PRES   REMARKS
WASHINGTON NAT MOCLDY    74  69  85 S7        30.01F
DULLES         PTCLDY    71  68  90 CALM      30.01S
ANDREWS AFB    PTCLDY    71  68  90 SE5       29.99F
FT BELVOIR     PTCLDY    71  69  96 CALM      30.00F
QUANTICO       MOCLDY    76  71  85 S8        30.00F
COLLEGE PARK*  CLOUDY    74  67  79 CALM      30.00S
LEESBURG*      MOCLDY    70  68  94 W3        30.03S
MANASSAS*      CLOUDY    72  70  93 S8        30.02S
GAITHERSBURG*  CLOUDY    71  70  96 CALM      30.03F

$$

MDZ006>007-011-014-290600-
BALTIMORE METRO

CITY           SKY/WX    TMP DP  RH WIND       PRES   REMARKS
BWI AIRPORT    MOCLDY    78  67  68 SE6       30.00S
MARTIN STATE   MOCLDY    75  72  88 E7        30.02S
ANNAPOLIS      MOCLDY    76  71  85 S8        30.00F
ABERDEEN*      CLEAR     71  67  87 CALM      30.00S
FORT MEADE*    CLOUDY    73  70  88 CALM      30.02F

$$

MDZ012-015-019>023-290600-
MARYLAND EASTERN SHORE

CITY           SKY/WX    TMP DP  RH WIND       PRES   REMARKS
OCEAN CITY     CLEAR     73  71  93 E5        30.01F
SALISBURY      PTCLDY    72  70  93 E3        30.01S FOG
CAMBRIDGE*     CLOUDY    72  72 100 NW5       30.02S
EASTON*        MOCLDY    74  73  96 SW9       30.06S

$$

MDZ017>025-290600-
SOUTHERN MARYLAND

CITY           SKY/WX    TMP DP  RH WIND       PRES   REMARKS
PATUXENT RIVER CLOUDY    79  71  76 CALM      30.01R
ST INIGOES     MOCLDY    79  74  84 E3        30.00R
LEONARDTOWN*   CLOUDY    72  72 100 CALM      30.04R

$$

MDZ003>005-290600-
NORTH CENTRAL MARYLAND

CITY           SKY/WX    TMP DP  RH WIND       PRES   REMARKS
FREDERICK*     PTCLDY    70  70 100 CALM      30.02S
HAGERSTOWN APT CLOUDY    75  66  73 CALM      30.02R
WESTMINSTER*   MOCLDY    75  70  83 CALM      30.04S

$$

MDZ501>502-290600-
WESTERN MARYLAND

CITY           SKY/WX    TMP DP  RH WIND       PRES   REMARKS
OAKLAND*       CLEAR     64  61  88 W3        30.12R
CUMBERLAND*    CLEAR     69  68  98 CALM      30.07R FOG

$$

VAZ025>031-290600-
SHENANDOAH VALLEY

CITY           SKY/WX    TMP DP  RH WIND       PRES   REMARKS
WINCHESTER*    MOCLDY    68  66  94 CALM        N/A
FRONT ROYAL*   PTCLDY    68  68 100 CALM      30.01F
LURAY*         CLEAR     72  66  83 CALM      30.02F
NEW MARKET*    CLEAR     69  68  96 CALM      30.02S
STAUNTON*      CLEAR     69  65  88 CALM      30.06S
WAYNESBORO*    CLEAR     71  66  85 CALM      30.05F

$$

WVZ021-048>050-054>055-290600-
EASTERN WEST VIRGINIA PANHANDLE

CITY           SKY/WX    TMP DP  RH WIND       PRES   REMARKS
MARTINSBURG    MOCLDY    71  66  84 CALM      30.00F
PETERSBURG*    CLEAR     71  65  84 CALM      30.02S

$$

VAZ036>039-050-290600-
CENTRAL FOOTHILLS

CITY           SKY/WX    TMP DP  RH WIND       PRES   REMARKS
CHARLOTTESVILL PTCLDY    72  68  87 CALM      30.02F
CULPEPER*      MOCLDY    74  72  93 S3        30.03R
ORANGE*        PTCLDY    72  68  88 CALM      30.01S
GORDONSVILLE*  PTCLDY    74  71  89 SW5       30.00S
WARRENTON*     RAIN      73  70  91 SE6       30.02S

$$

VAZ055>057-290600-
NORTH AND CENTRAL PIEDMONT

CITY           SKY/WX    TMP DP  RH WIND       PRES   REMARKS
FREDERICKSBRG* MOCLDY    76  70  83 CALM      29.98F
STAFFORD*      MOCLDY    74  68  82 CALM      30.04F

$$

NCZ024-NYZ072-PAZ021-071-VAZ022-071-290600-
OTHER REGIONAL OBSERVATIONS

CITY           SKY/WX    TMP DP  RH WIND       PRES   REMARKS
NEW YORK CITY  CLEAR     71  63  75 CALM      30.06F
PHILADELPHIA   CLEAR     72  65  78 CALM      30.03F
PITTSBURGH     PTCLDY    69  63  81 CALM      30.01F
ROANOKE        CLEAR     75  64  68 NW5       30.07R
RICHMOND       PTCLDY    74  70  87 SW5       29.98F
RALEIGH        PTCLDY    71  70  96 SW8       30.01F

$$

ANZ530>537-290600-
MARINE OBSERVATIONS

STATION/POSITION TIME  TEMP    WIND        PRES
                       AIR SEA DIR/SP/G
                 (UTC) (F)     (DEG/KT/KT) (MB)
THOMAS PT LIGHT  0500   76 81  140/ 15/ 17 1016.9F
TOLCHESTER       0430   73 83  130/  4/  6 1016.3S
GOOSES REEF      0442   71 82   90/  2/  2 1017.7R
COVE POINT       0430   77      80/  8/ 10 1016.2F
BALT HARBOR      0430   77 84  170/  5/  9 1015.6S
BALT KEY BRIDGE  0430   77     150/  9/ 11 1015.7F
WASH DC CHANNEL  0430   75 84  190/  5/  7 1016.1F
DAHLGREN         0430   74 87   CALM  /  6 1015.8R
LEWISETTA        0430   78 86  160/  5/  6 1015.8F
SOLOMONS ISLAND  0430   78 84  120/  9/ 12 1016.0R
PINEY POINT      0430          120/  9/ 11   N/A
POTOMAC BUOY     0442   76     120/ 12/ 14 1016.5R
CAMBRIDGE PIER   0430   74 85  120/  5/  7 1016.6R
BISHOPS HEAD     0430   76 84  110/  9/ 12 1016.2R
CHESAPEAKE CITY  0430   72 84   20/  2/  3 1017.0R

$$




USA.gov is the U.S. government's official web portal to all federal, state and local government web resources and services.